| time (UTC) | temp C | wind direction | speed KPH | gust KPH | rain 1hr cm | rain 24hr cm | rain mn cm | humidity % | barometer mb |
| 20260507032524 | 11 | 0 | 0.0 | 1.6 | 0.00 | 0.00 | 0.00 | 67 | 1018.8 |
| 20260507032003 | 11 | 31 | 0.0 | 1.6 | 0.00 | 0.00 | 0.00 | 66 | 1018.4 |
| 20260507031503 | 11 | 31 | 0.0 | 1.6 | 0.00 | 0.00 | 0.00 | 66 | 1018.1 |
| 20260507031023 | 12 | 0 | 0.0 | 1.6 | 0.00 | 0.00 | 0.00 | 64 | 1018.5 |
| 20260507030502 | 12 | 31 | 0.0 | 1.6 | 0.00 | 0.00 | 0.00 | 64 | 1018.3 |
| 20260507030002 | 12 | 31 | 0.0 | 1.6 | 0.00 | 0.00 | 0.00 | 63 | 1018.2 |
| 20260507025524 | 12 | 0 | 0.0 | 1.6 | 0.00 | 0.00 | 0.00 | 62 | 1018.3 |
| 20260507025024 | 12 | 0 | 0.0 | 3.2 | 0.00 | 0.00 | 0.00 | 61 | 1018.5 |
| 20260507024503 | 13 | 31 | 0.0 | 3.2 | 0.00 | 0.00 | 0.00 | 59 | 1017.8 |
| 20260507024002 | 13 | 31 | 1.6 | 3.2 | 0.00 | 0.00 | 0.00 | 60 | 1018.1 |
| 20260507023502 | 13 | 14 | 0.0 | 3.2 | 0.00 | 0.00 | 0.00 | 59 | 1017.9 |
| 20260507023002 | 13 | 0 | 0.0 | 4.8 | 0.00 | 0.00 | 0.00 | 58 | 1018.1 |
| 20260507022502 | 13 | 20 | 0.0 | 6.4 | 0.00 | 0.00 | 0.00 | 56 | 1017.9 |
| 20260507022002 | 14 | 44 | 1.6 | 6.4 | 0.00 | 0.00 | 0.00 | 55 | 1017.7 |
| 20260507021524 | 14 | 38 | 0.0 | 9.7 | 0.00 | 0.00 | 0.00 | 55 | 1017.6 |
| 20260507021002 | 14 | 42 | 1.6 | 9.7 | 0.00 | 0.00 | 0.00 | 54 | 1017.8 |
| 20260507020524 | 14 | 36 | 3.2 | 9.7 | 0.00 | 0.00 | 0.00 | 54 | 1017.7 |
| 20260507020002 | 15 | 0 | 0.0 | 4.8 | 0.00 | 0.00 | 0.00 | 54 | 1017.8 |
| 20260507015502 | 15 | 49 | 0.0 | 11.3 | 0.00 | 0.00 | 0.00 | 53 | 1018.0 |
| 20260507015002 | 15 | 50 | 3.2 | 11.3 | 0.00 | 0.00 | 0.00 | 53 | 1017.4 |
| 20260507014502 | 15 | 14 | 1.6 | 16.1 | 0.00 | 0.00 | 0.00 | 52 | 1017.4 |
| 20260507014002 | 15 | 43 | 6.4 | 16.1 | 0.00 | 0.00 | 0.00 | 52 | 1017.5 |
| 20260507013502 | 15 | 56 | 6.4 | 14.5 | 0.00 | 0.00 | 0.00 | 51 | 1017.3 |
| 20260507013002 | 15 | 46 | 4.8 | 14.5 | 0.00 | 0.00 | 0.00 | 51 | 1017.2 |
| 20260507012502 | 15 | 47 | 3.2 | 16.1 | 0.00 | 0.00 | 0.00 | 51 | 1017.2 |
| 20260507012003 | 15 | 35 | 4.8 | 16.1 | 0.00 | 0.00 | 0.00 | 51 | 1017.1 |
| 20260507011503 | 16 | 17 | 6.4 | 12.9 | 0.00 | 0.00 | 0.00 | 50 | 1017.2 |
| 20260507011003 | 16 | 60 | 6.4 | 12.9 | 0.00 | 0.00 | 0.00 | 51 | 1017.5 |
| 20260507010502 | 16 | 88 | 3.2 | 14.5 | 0.00 | 0.00 | 0.00 | 51 | 1017.4 |
| 20260507010003 | 16 | 30 | 4.8 | 16.1 | 0.00 | 0.00 | 0.00 | 50 | 1017.0 |
| 20260507005503 | 16 | 37 | 4.8 | 17.7 | 0.00 | 0.00 | 0.00 | 51 | 1016.9 |
| 20260507005002 | 16 | 22 | 6.4 | 17.7 | 0.00 | 0.00 | 0.00 | 50 | 1016.8 |
| 20260507004523 | 16 | 16 | 8.0 | 20.9 | 0.00 | 0.00 | 0.00 | 50 | 1017.1 |
| 20260507004002 | 16 | 46 | 6.4 | 20.9 | 0.00 | 0.00 | 0.00 | 50 | 1016.9 |
| 20260507003502 | 16 | 15 | 6.4 | 20.9 | 0.00 | 0.00 | 0.00 | 50 | 1016.8 |
| 20260507003003 | 16 | 28 | 4.8 | 12.9 | 0.00 | 0.00 | 0.00 | 49 | 1016.9 |
| 20260507002503 | 16 | 32 | 6.4 | 17.7 | 0.00 | 0.00 | 0.00 | 50 | 1016.7 |
| 20260507002003 | 16 | 54 | 3.2 | 17.7 | 0.00 | 0.00 | 0.00 | 50 | 1016.9 |
| 20260507001502 | 16 | 66 | 8.0 | 17.7 | 0.00 | 0.00 | 0.00 | 50 | 1016.7 |
| 20260507001002 | 16 | 42 | 3.2 | 14.5 | 0.00 | 0.00 | 0.00 | 50 | 1016.7 |
| 20260507000502 | 16 | 64 | 8.0 | 14.5 | 0.00 | 0.00 | 0.00 | 50 | 1016.6 |
| 20260507000023 | 16 | 48 | 3.2 | 14.5 | 0.00 | 0.00 | 0.00 | 49 | 1016.5 |
| 20260506235502 | 17 | 38 | 8.0 | 16.1 | 0.00 | 0.00 | 0.00 | 49 | 1016.9 |
| 20260506235002 | 17 | 57 | 1.6 | 16.1 | 0.00 | 0.00 | 0.00 | 49 | 1016.3 |
| 20260506234523 | 17 | 44 | 4.8 | 16.1 | 0.00 | 0.00 | 0.00 | 50 | 1016.7 |
| 20260506234002 | 17 | 65 | 4.8 | 12.9 | 0.00 | 0.00 | 0.00 | 48 | 1016.6 |
| 20260506233502 | 17 | 25 | 3.2 | 17.7 | 0.00 | 0.00 | 0.00 | 48 | 1016.1 |
| 20260506233003 | 17 | 53 | 6.4 | 17.7 | 0.00 | 0.00 | 0.00 | 47 | 1016.2 |
| 20260506232503 | 17 | 3 | 8.0 | 17.7 | 0.00 | 0.00 | 0.00 | 47 | 1016.2 |
| 20260506232003 | 17 | 103 | 4.8 | 17.7 | 0.00 | 0.00 | 0.00 | 47 | 1016.6 |
| 20260506231502 | 18 | 57 | 6.4 | 17.7 | 0.00 | 0.00 | 0.00 | 46 | 1016.1 |
| 20260506231002 | 18 | 53 | 9.7 | 17.7 | 0.00 | 0.00 | 0.00 | 47 | 1016.3 |
| 20260506230524 | 18 | 80 | 6.4 | 17.7 | 0.00 | 0.00 | 0.00 | 47 | 1016.3 |
| 20260506230003 | 18 | 76 | 8.0 | 17.7 | 0.00 | 0.00 | 0.00 | 47 | 1016.1 |
| 20260506225502 | 18 | 102 | 8.0 | 16.1 | 0.00 | 0.00 | 0.00 | 47 | 1016.0 |
| 20260506225003 | 18 | 70 | 6.4 | 22.5 | 0.00 | 0.00 | 0.00 | 49 | 1016.3 |
| 20260506224502 | 17 | 33 | 3.2 | 22.5 | 0.00 | 0.00 | 0.00 | 48 | 1015.8 |
| 20260506224003 | 17 | 9 | 9.7 | 22.5 | 0.00 | 0.00 | 0.00 | 47 | 1015.9 |
| 20260506223503 | 17 | 35 | 8.0 | 17.7 | 0.00 | 0.00 | 0.00 | 48 | 1015.8 |
| 20260506223003 | 17 | 85 | 6.4 | 17.7 | 0.00 | 0.00 | 0.00 | 47 | 1016.1 |
| 20260506222503 | 17 | 33 | 6.4 | 22.5 | 0.00 | 0.00 | 0.00 | 48 | 1015.6 |
| 20260506222002 | 17 | 69 | 11.3 | 22.5 | 0.00 | 0.00 | 0.00 | 48 | 1015.6 |
| 20260506221503 | 17 | 68 | 4.8 | 22.5 | 0.00 | 0.00 | 0.00 | 48 | 1015.6 |
| 20260506221003 | 17 | 93 | 11.3 | 22.5 | 0.00 | 0.00 | 0.00 | 48 | 1015.7 |
| 20260506220502 | 17 | 25 | 11.3 | 22.5 | 0.00 | 0.00 | 0.00 | 47 | 1016.3 |
| 20260506220002 | 17 | 34 | 6.4 | 17.7 | 0.00 | 0.00 | 0.00 | 49 | 1015.4 |
| 20260506215502 | 17 | 4 | 6.4 | 17.7 | 0.00 | 0.00 | 0.00 | 48 | 1015.8 |
| 20260506215023 | 18 | 64 | 6.4 | 17.7 | 0.00 | 0.00 | 0.00 | 48 | 1015.7 |
| 20260506214502 | 18 | 37 | 6.4 | 17.7 | 0.00 | 0.00 | 0.00 | 48 | 1015.7 |
| 20260506214003 | 18 | 57 | 6.4 | 17.7 | 0.00 | 0.00 | 0.00 | 47 | 1015.5 |
| 20260506213502 | 18 | 51 | 9.7 | 16.1 | 0.00 | 0.00 | 0.00 | 48 | 1015.8 |
| 20260506213002 | 18 | 71 | 8.0 | 16.1 | 0.00 | 0.00 | 0.00 | 47 | 1015.7 |
| 20260506212502 | 17 | 35 | 3.2 | 22.5 | 0.00 | 0.00 | 0.00 | 48 | 1015.8 |
| 20260506212002 | 18 | 64 | 8.0 | 22.5 | 0.00 | 0.00 | 0.00 | 47 | 1015.8 |
| 20260506211524 | 17 | 119 | 3.2 | 16.1 | 0.00 | 0.00 | 0.00 | 50 | 1016.3 |
| 20260506211003 | 17 | 112 | 3.2 | 17.7 | 0.00 | 0.00 | 0.00 | 49 | 1015.9 |
| 20260506210503 | 17 | 93 | 6.4 | 20.9 | 0.00 | 0.00 | 0.00 | 52 | 1016.1 |
| 20260506210003 | 17 | 64 | 8.0 | 20.9 | 0.00 | 0.00 | 0.00 | 53 | 1016.1 |
| 20260506205502 | 17 | 112 | 8.0 | 20.9 | 0.00 | 0.00 | 0.00 | 52 | 1016.0 |
| 20260506205023 | 17 | 13 | 4.8 | 22.5 | 0.00 | 0.00 | 0.00 | 52 | 1016.2 |
| 20260506204503 | 16 | 24 | 6.4 | 22.5 | 0.00 | 0.00 | 0.00 | 53 | 1016.4 |
| 20260506204024 | 17 | 49 | 11.3 | 22.5 | 0.00 | 0.00 | 0.00 | 52 | 1016.3 |
| 20260506203503 | 17 | 43 | 3.2 | 14.5 | 0.00 | 0.00 | 0.00 | 54 | 1016.4 |
| 20260506203002 | 16 | 6 | 8.0 | 16.1 | 0.00 | 0.00 | 0.00 | 53 | 1016.4 |
| 20260506202502 | 16 | 28 | 8.0 | 20.9 | 0.00 | 0.00 | 0.00 | 54 | 1016.5 |
| 20260506202002 | 16 | 33 | 8.0 | 20.9 | 0.00 | 0.00 | 0.00 | 53 | 1016.3 |
| 20260506201502 | 16 | 77 | 9.7 | 27.4 | 0.00 | 0.00 | 0.00 | 52 | 1016.7 |
| 20260506201002 | 17 | 41 | 9.7 | 27.4 | 0.00 | 0.00 | 0.00 | 52 | 1016.5 |
| 20260506200503 | 16 | 22 | 4.8 | 17.7 | 0.00 | 0.00 | 0.00 | 55 | 1016.2 |
| 20260506200003 | 16 | 26 | 9.7 | 24.1 | 0.00 | 0.00 | 0.00 | 52 | 1016.5 |
| 20260506195502 | 16 | 7 | 8.0 | 24.1 | 0.00 | 0.00 | 0.00 | 53 | 1016.6 |
| 20260506195004 | 16 | 53 | 6.4 | 24.1 | 0.00 | 0.00 | 0.00 | 54 | 1016.7 |
| 20260506194503 | 16 | 30 | 8.0 | 22.5 | 0.00 | 0.00 | 0.00 | 52 | 1016.6 |
| 20260506194003 | 16 | 43 | 12.9 | 22.5 | 0.00 | 0.00 | 0.00 | 53 | 1016.7 |
| 20260506193502 | 16 | 7 | 6.4 | 20.9 | 0.00 | 0.00 | 0.00 | 54 | 1016.4 |
| 20260506193003 | 16 | 96 | 9.7 | 20.9 | 0.00 | 0.00 | 0.00 | 54 | 1016.6 |
| 20260506192502 | 16 | 94 | 9.7 | 20.9 | 0.00 | 0.00 | 0.00 | 54 | 1017.0 |
| 20260506192002 | 16 | 90 | 6.4 | 20.9 | 0.00 | 0.00 | 0.00 | 55 | 1016.9 |
| 20260506191524 | 16 | 48 | 8.0 | 17.7 | 0.00 | 0.00 | 0.00 | 56 | 1017.3 |
| 20260506191003 | 15 | 51 | 8.0 | 22.5 | 0.00 | 0.00 | 0.00 | 56 | 1016.5 |
| 20260506190502 | 16 | 51 | 9.7 | 22.5 | 0.00 | 0.00 | 0.00 | 55 | 1017.3 |
| 20260506190002 | 16 | 64 | 9.7 | 22.5 | 0.00 | 0.00 | 0.00 | 54 | 1017.3 |
| 20260506185503 | 16 | 70 | 6.4 | 20.9 | 0.00 | 0.00 | 0.00 | 54 | 1017.3 |
| 20260506185023 | 16 | 64 | 6.4 | 20.9 | 0.00 | 0.00 | 0.00 | 57 | 1016.9 |
| 20260506184502 | 16 | 90 | 8.0 | 20.9 | 0.00 | 0.00 | 0.00 | 55 | 1016.9 |
| 20260506184002 | 16 | 63 | 8.0 | 20.9 | 0.00 | 0.00 | 0.00 | 55 | 1017.0 |
| 20260506183503 | 16 | 87 | 9.7 | 20.9 | 0.00 | 0.00 | 0.00 | 54 | 1017.0 |
| 20260506183003 | 16 | 84 | 4.8 | 20.9 | 0.00 | 0.00 | 0.00 | 54 | 1017.2 |
| 20260506182503 | 16 | 64 | 8.0 | 20.9 | 0.00 | 0.00 | 0.00 | 52 | 1017.1 |
| 20260506182003 | 16 | 112 | 6.4 | 20.9 | 0.00 | 0.00 | 0.00 | 53 | 1017.2 |
| 20260506181524 | 16 | 91 | 6.4 | 20.9 | 0.00 | 0.00 | 0.00 | 55 | 1017.3 |
| 20260506181002 | 16 | 78 | 6.4 | 20.9 | 0.00 | 0.00 | 0.00 | 55 | 1017.5 |
| 20260506180502 | 16 | 58 | 9.7 | 17.7 | 0.00 | 0.00 | 0.00 | 55 | 1017.3 |
| 20260506180003 | 16 | 99 | 9.7 | 22.5 | 0.00 | 0.00 | 0.00 | 55 | 1017.7 |
| 20260506175503 | 15 | 98 | 6.4 | 25.7 | 0.00 | 0.00 | 0.00 | 55 | 1017.3 |
| 20260506175002 | 16 | 34 | 6.4 | 25.7 | 0.00 | 0.00 | 0.00 | 53 | 1017.7 |
| 20260506174503 | 16 | 101 | 9.7 | 25.7 | 0.00 | 0.00 | 0.00 | 53 | 1017.8 |
| 20260506174002 | 16 | 109 | 6.4 | 25.7 | 0.00 | 0.00 | 0.00 | 56 | 1017.6 |
| 20260506173523 | 15 | 70 | 11.3 | 25.7 | 0.00 | 0.00 | 0.00 | 55 | 1017.4 |
| 20260506173002 | 16 | 63 | 9.7 | 24.1 | 0.00 | 0.00 | 0.00 | 53 | 1017.6 |
| 20260506172503 | 16 | 65 | 6.4 | 24.1 | 0.00 | 0.00 | 0.00 | 54 | 1017.7 |
| 20260506172024 | 16 | 50 | 9.7 | 24.1 | 0.00 | 0.00 | 0.00 | 52 | 1018.0 |
| 20260506171503 | 16 | 109 | 6.4 | 25.7 | 0.00 | 0.00 | 0.00 | 54 | 1017.1 |
| 20260506171024 | 16 | 60 | 11.3 | 25.7 | 0.00 | 0.00 | 0.00 | 54 | 1017.4 |
| 20260506170524 | 16 | 125 | 11.3 | 37.0 | 0.00 | 0.00 | 0.00 | 54 | 1017.5 |
| 20260506170002 | 15 | 135 | 11.3 | 37.0 | 0.00 | 0.00 | 0.00 | 54 | 1017.6 |
| 20260506165502 | 16 | 77 | 11.3 | 25.7 | 0.00 | 0.00 | 0.00 | 53 | 1017.6 |
| 20260506165003 | 15 | 85 | 6.4 | 27.4 | 0.00 | 0.00 | 0.00 | 57 | 1017.5 |
| 20260506164524 | 15 | 78 | 11.3 | 27.4 | 0.00 | 0.00 | 0.00 | 53 | 1017.3 |
| 20260506164002 | 15 | 93 | 12.9 | 27.4 | 0.00 | 0.00 | 0.00 | 54 | 1017.9 |
| 20260506163502 | 15 | 112 | 14.5 | 27.4 | 0.00 | 0.00 | 0.00 | 54 | 1017.9 |
| 20260506163002 | 15 | 127 | 9.7 | 22.5 | 0.00 | 0.00 | 0.00 | 57 | 1018.0 |
| 20260506162502 | 14 | 81 | 8.0 | 30.6 | 0.00 | 0.00 | 0.00 | 58 | 1018.3 |
| 20260506162002 | 15 | 84 | 12.9 | 30.6 | 0.00 | 0.00 | 0.00 | 57 | 1018.2 |
| 20260506161502 | 14 | 87 | 12.9 | 30.6 | 0.00 | 0.00 | 0.00 | 58 | 1017.6 |
| 20260506161003 | 14 | 82 | 9.7 | 30.6 | 0.00 | 0.00 | 0.00 | 59 | 1017.5 |
| 20260506160503 | 13 | 71 | 9.7 | 30.6 | 0.00 | 0.00 | 0.00 | 60 | 1017.7 |
| 20260506160003 | 13 | 65 | 14.5 | 29.0 | 0.00 | 0.00 | 0.00 | 60 | 1017.7 |
| 20260506155523 | 13 | 84 | 12.9 | 25.7 | 0.00 | 0.00 | 0.00 | 60 | 1017.7 |
| 20260506155023 | 13 | 86 | 11.3 | 27.4 | 0.00 | 0.00 | 0.00 | 60 | 1017.8 |
| 20260506154503 | 12 | 75 | 12.9 | 27.4 | 0.00 | 0.00 | 0.00 | 60 | 1017.8 |
| 20260506154002 | 13 | 94 | 12.9 | 27.4 | 0.00 | 0.00 | 0.00 | 62 | 1017.8 |
| 20260506153502 | 12 | 73 | 12.9 | 27.4 | 0.00 | 0.00 | 0.00 | 62 | 1017.9 |
| 20260506153003 | 12 | 49 | 9.7 | 25.7 | 0.00 | 0.00 | 0.00 | 63 | 1017.8 |
| 20260506152502 | 12 | 96 | 12.9 | 25.7 | 0.00 | 0.00 | 0.00 | 63 | 1018.0 |
| 20260506152002 | 12 | 120 | 12.9 | 24.1 | 0.00 | 0.00 | 0.00 | 64 | 1018.0 |
| 20260506151503 | 12 | 112 | 8.0 | 24.1 | 0.00 | 0.00 | 0.00 | 67 | 1017.3 |
| 20260506151024 | 12 | 50 | 9.7 | 24.1 | 0.00 | 0.00 | 0.00 | 69 | 1018.2 |
| 20260506150503 | 11 | 78 | 11.3 | 29.0 | 0.00 | 0.00 | 0.00 | 69 | 1017.8 |
| 20260506150003 | 11 | 43 | 6.4 | 29.0 | 0.00 | 0.00 | 0.00 | 69 | 1017.8 |
| 20260506145502 | 11 | 78 | 9.7 | 29.0 | 0.00 | 0.00 | 0.00 | 71 | 1017.6 |
| 20260506145002 | 10 | 94 | 6.4 | 29.0 | 0.00 | 0.00 | 0.00 | 73 | 1017.7 |
| 20260506144503 | 10 | 108 | 12.9 | 29.0 | 0.00 | 0.00 | 0.00 | 72 | 1017.5 |
| 20260506144003 | 10 | 76 | 9.7 | 25.7 | 0.00 | 0.00 | 0.00 | 75 | 1017.3 |
| 20260506143503 | 10 | 60 | 11.3 | 24.1 | 0.00 | 0.00 | 0.00 | 75 | 1016.6 |
| 20260506143024 | 10 | 72 | 11.3 | 24.1 | 0.00 | 0.00 | 0.00 | 75 | 1017.1 |
| 20260506142502 | 10 | 352 | 8.0 | 22.5 | 0.00 | 0.00 | 0.00 | 76 | 1017.1 |
| 20260506142003 | 10 | 65 | 6.4 | 27.4 | 0.00 | 0.00 | 0.00 | 76 | 1017.0 |
| 20260506141503 | 10 | 83 | 9.7 | 27.4 | 0.00 | 0.00 | 0.00 | 76 | 1017.3 |
| 20260506141023 | 10 | 72 | 9.7 | 24.1 | 0.00 | 0.00 | 0.00 | 76 | 1017.3 |
| 20260506140502 | 10 | 40 | 9.7 | 24.1 | 0.00 | 0.00 | 0.00 | 77 | 1017.1 |
| 20260506140003 | 10 | 77 | 9.7 | 27.4 | 0.00 | 0.00 | 0.00 | 77 | 1017.3 |
| 20260506135503 | 10 | 31 | 8.0 | 27.4 | 0.00 | 0.00 | 0.00 | 78 | 1017.0 |
| 20260506135003 | 10 | 60 | 9.7 | 24.1 | 0.00 | 0.00 | 0.00 | 78 | 1017.3 |
| 20260506134523 | 10 | 59 | 9.7 | 24.1 | 0.00 | 0.00 | 0.00 | 79 | 1017.4 |
| 20260506134003 | 10 | 47 | 11.3 | 24.1 | 0.00 | 0.00 | 0.00 | 79 | 1017.2 |
| 20260506133502 | 9 | 22 | 4.8 | 20.9 | 0.00 | 0.00 | 0.00 | 79 | 1017.2 |
| 20260506133002 | 9 | 43 | 6.4 | 20.9 | 0.00 | 0.00 | 0.00 | 80 | 1017.2 |
| 20260506132502 | 9 | 34 | 8.0 | 20.9 | 0.00 | 0.00 | 0.00 | 80 | 1017.5 |
| 20260506132002 | 9 | 73 | 6.4 | 20.9 | 0.00 | 0.00 | 0.00 | 80 | 1017.6 |
| 20260506131523 | 9 | 87 | 1.6 | 20.9 | 0.00 | 0.00 | 0.00 | 81 | 1017.2 |
| 20260506131002 | 9 | 78 | 6.4 | 20.9 | 0.00 | 0.00 | 0.00 | 81 | 1017.5 |
| 20260506130502 | 9 | 78 | 4.8 | 24.1 | 0.00 | 0.00 | 0.00 | 81 | 1017.0 |
| 20260506130003 | 9 | 37 | 4.8 | 24.1 | 0.00 | 0.00 | 0.00 | 81 | 1016.9 |
| 20260506125524 | 9 | 48 | 6.4 | 24.1 | 0.00 | 0.00 | 0.00 | 81 | 1017.3 |
| 20260506125023 | 9 | 40 | 4.8 | 20.9 | 0.00 | 0.00 | 0.00 | 81 | 1016.8 |
| 20260506124502 | 9 | 39 | 11.3 | 22.5 | 0.00 | 0.00 | 0.00 | 81 | 1016.9 |
| 20260506124024 | 9 | 53 | 3.2 | 24.1 | 0.00 | 0.00 | 0.00 | 82 | 1016.8 |
| 20260506123503 | 8 | 52 | 8.0 | 24.1 | 0.00 | 0.00 | 0.00 | 82 | 1016.6 |
| 20260506123003 | 8 | 50 | 9.7 | 20.9 | 0.00 | 0.00 | 0.00 | 82 | 1016.4 |
| 20260506122502 | 8 | 32 | 8.0 | 20.9 | 0.00 | 0.00 | 0.00 | 82 | 1016.5 |
| 20260506122002 | 8 | 42 | 8.0 | 20.9 | 0.00 | 0.00 | 0.00 | 82 | 1016.6 |
| 20260506121503 | 8 | 54 | 8.0 | 17.7 | 0.00 | 0.00 | 0.00 | 82 | 1016.0 |
| 20260506121003 | 8 | 39 | 6.4 | 24.1 | 0.00 | 0.00 | 0.00 | 82 | 1016.2 |
| 20260506120523 | 8 | 70 | 8.0 | 24.1 | 0.00 | 0.00 | 0.00 | 82 | 1016.1 |
| 20260506120003 | 8 | 62 | 8.0 | 17.7 | 0.00 | 0.00 | 0.00 | 82 | 1016.2 |
| 20260506115502 | 8 | 42 | 6.4 | 22.5 | 0.00 | 0.00 | 0.00 | 82 | 1016.2 |
| 20260506115003 | 8 | 55 | 6.4 | 22.5 | 0.00 | 0.00 | 0.00 | 82 | 1015.8 |
| 20260506114502 | 8 | 55 | 8.0 | 17.7 | 0.00 | 0.00 | 0.00 | 82 | 1015.8 |
| 20260506114003 | 8 | 33 | 9.7 | 17.7 | 0.00 | 0.00 | 0.00 | 82 | 1016.0 |
| 20260506113503 | 8 | 16 | 4.8 | 16.1 | 0.00 | 0.00 | 0.00 | 81 | 1015.9 |
| 20260506113024 | 8 | 23 | 6.4 | 16.1 | 0.00 | 0.00 | 0.00 | 81 | 1015.5 |
| 20260506112503 | 8 | 12 | 6.4 | 17.7 | 0.00 | 0.00 | 0.00 | 81 | 1015.6 |
| 20260506112003 | 8 | 27 | 3.2 | 17.7 | 0.00 | 0.00 | 0.00 | 81 | 1015.4 |
| 20260506111524 | 8 | 24 | 8.0 | 17.7 | 0.00 | 0.00 | 0.00 | 80 | 1015.5 |
| 20260506111003 | 8 | 58 | 4.8 | 17.7 | 0.00 | 0.00 | 0.00 | 80 | 1015.6 |
| 20260506110502 | 8 | 40 | 8.0 | 22.5 | 0.00 | 0.00 | 0.00 | 80 | 1015.6 |
| 20260506110003 | 8 | 68 | 4.8 | 22.5 | 0.00 | 0.00 | 0.00 | 80 | 1015.4 |
| 20260506105502 | 8 | 13 | 6.4 | 16.1 | 0.00 | 0.00 | 0.00 | 80 | 1015.4 |
| 20260506105003 | 9 | 37 | 8.0 | 17.7 | 0.00 | 0.00 | 0.00 | 80 | 1015.5 |
| 20260506104503 | 9 | 26 | 4.8 | 17.7 | 0.00 | 0.00 | 0.00 | 80 | 1015.9 |
| 20260506104024 | 9 | 20 | 6.4 | 17.7 | 0.00 | 0.00 | 0.00 | 80 | 1016.4 |
| 20260506103503 | 9 | 345 | 3.2 | 11.3 | 0.00 | 0.00 | 0.00 | 80 | 1016.0 |
| 20260506103002 | 9 | 10 | 6.4 | 14.5 | 0.00 | 0.00 | 0.00 | 79 | 1016.4 |
| 20260506102503 | 9 | 35 | 4.8 | 14.5 | 0.00 | 0.00 | 0.00 | 79 | 1016.0 |
| 20260506102002 | 9 | 41 | 4.8 | 11.3 | 0.00 | 0.00 | 0.00 | 79 | 1015.7 |
| 20260506101503 | 9 | 35 | 1.6 | 9.7 | 0.00 | 0.00 | 0.00 | 79 | 1016.1 |
| 20260506101002 | 9 | 23 | 3.2 | 9.7 | 0.00 | 0.00 | 0.00 | 79 | 1015.7 |
| 20260506100502 | 9 | 312 | 0.0 | 11.3 | 0.00 | 0.00 | 0.00 | 79 | 1016.0 |
| 20260506100003 | 9 | 8 | 1.6 | 11.3 | 0.00 | 0.00 | 0.00 | 79 | 1015.9 |
| 20260506095502 | 9 | 79 | 1.6 | 9.7 | 0.00 | 0.00 | 0.00 | 78 | 1015.8 |
| 20260506095003 | 9 | 21 | 3.2 | 9.7 | 0.00 | 0.00 | 0.00 | 78 | 1015.7 |
| 20260506094524 | 9 | 116 | 1.6 | 12.9 | 0.00 | 0.00 | 0.00 | 78 | 1015.5 |
| 20260506094002 | 9 | 46 | 3.2 | 12.9 | 0.00 | 0.00 | 0.00 | 78 | 1015.7 |
| 20260506093502 | 9 | 54 | 1.6 | 14.5 | 0.00 | 0.00 | 0.00 | 77 | 1015.5 |
| 20260506093003 | 9 | 71 | 4.8 | 14.5 | 0.00 | 0.00 | 0.00 | 77 | 1015.0 |
| 20260506092503 | 9 | 27 | 8.0 | 14.5 | 0.00 | 0.00 | 0.00 | 77 | 1015.0 |
| 20260506092002 | 9 | 32 | 4.8 | 14.5 | 0.00 | 0.00 | 0.00 | 76 | 1014.7 |
| 20260506091503 | 9 | 22 | 4.8 | 14.5 | 0.00 | 0.00 | 0.00 | 76 | 1015.0 |
| 20260506091003 | 9 | 15 | 3.2 | 14.5 | 0.00 | 0.00 | 0.00 | 76 | 1014.7 |
| 20260506090503 | 9 | 348 | 6.4 | 12.9 | 0.00 | 0.00 | 0.00 | 76 | 1014.5 |
| 20260506090003 | 9 | 38 | 4.8 | 12.9 | 0.00 | 0.00 | 0.00 | 76 | 1014.6 |
| 20260506085502 | 9 | 10 | 4.8 | 14.5 | 0.00 | 0.00 | 0.00 | 76 | 1014.7 |
| 20260506085003 | 9 | 334 | 1.6 | 17.7 | 0.00 | 0.00 | 0.00 | 75 | 1014.7 |
| 20260506084503 | 9 | 21 | 6.4 | 20.9 | 0.00 | 0.00 | 0.00 | 75 | 1014.9 |
| 20260506084003 | 9 | 352 | 8.0 | 20.9 | 0.00 | 0.00 | 0.00 | 75 | 1014.9 |
| 20260506083503 | 9 | 24 | 4.8 | 14.5 | 0.00 | 0.00 | 0.00 | 75 | 1014.9 |
| 20260506083003 | 9 | 49 | 3.2 | 12.9 | 0.00 | 0.00 | 0.00 | 75 | 1014.7 |
| 20260506082503 | 9 | 345 | 3.2 | 12.9 | 0.00 | 0.00 | 0.00 | 75 | 1014.0 |
| 20260506082024 | 9 | 350 | 6.4 | 20.9 | 0.00 | 0.00 | 0.00 | 75 | 1014.0 |
| 20260506081503 | 9 | 9 | 6.4 | 20.9 | 0.00 | 0.00 | 0.00 | 74 | 1013.8 |
| 20260506081003 | 9 | 7 | 3.2 | 17.7 | 0.00 | 0.00 | 0.00 | 75 | 1014.0 |
| 20260506080502 | 9 | 6 | 6.4 | 17.7 | 0.00 | 0.00 | 0.00 | 74 | 1013.8 |
| 20260506073524 | 9 | 18 | 3.2 | 16.1 | 0.00 | 0.00 | 0.00 | 74 | 1013.7 |
| 20260506073002 | 9 | 90 | 1.6 | 16.1 | 0.00 | 0.00 | 0.00 | 74 | 1013.7 |
| 20260506072502 | 9 | 26 | 3.2 | 16.1 | 0.00 | 0.00 | 0.00 | 74 | 1013.3 |
| 20260506072023 | 9 | 42 | 3.2 | 20.9 | 0.00 | 0.00 | 0.00 | 74 | 1013.2 |
| 20260506071503 | 9 | 41 | 4.8 | 20.9 | 0.00 | 0.00 | 0.00 | 74 | 1013.5 |
| 20260506071003 | 9 | 66 | 4.8 | 11.3 | 0.00 | 0.00 | 0.00 | 74 | 1013.1 |
| 20260506070523 | 9 | 34 | 3.2 | 12.9 | 0.00 | 0.00 | 0.00 | 74 | 1013.4 |
| 20260506062503 | 9 | 42 | 4.8 | 12.9 | 0.00 | 0.00 | 0.00 | 73 | 1013.6 |
| 20260506062003 | 9 | 56 | 1.6 | 12.9 | 0.00 | 0.00 | 0.00 | 73 | 1013.6 |
| 20260506061523 | 9 | 64 | 4.8 | 20.9 | 0.00 | 0.00 | 0.00 | 73 | 1013.3 |
| 20260506061002 | 9 | 37 | 4.8 | 20.9 | 0.00 | 0.00 | 0.00 | 73 | 1013.5 |
| 20260506060503 | 9 | 42 | 6.4 | 22.5 | 0.00 | 0.00 | 0.00 | 73 | 1013.6 |
| 20260506051002 | 9 | 74 | 8.0 | 17.7 | 0.00 | 0.00 | 0.00 | 71 | 1013.6 |
| 20260506050503 | 9 | 62 | 4.8 | 14.5 | 0.00 | 0.00 | 0.00 | 71 | 1013.0 |
| 20260506045002 | 9 | 39 | 4.8 | 20.9 | 0.00 | 0.00 | 0.00 | 72 | 1013.7 |
| 20260506044503 | 9 | 57 | 6.4 | 22.5 | 0.00 | 0.00 | 0.00 | 72 | 1013.1 |
| 20260506044002 | 9 | 49 | 6.4 | 22.5 | 0.00 | 0.00 | 0.00 | 72 | 1013.3 |
| 20260506043502 | 10 | 37 | 8.0 | 22.5 | 0.00 | 0.00 | 0.00 | 72 | 1013.7 |
| 20260506043003 | 9 | 84 | 4.8 | 20.9 | 0.00 | 0.00 | 0.00 | 73 | 1013.2 |
| 20260506042503 | 10 | 33 | 6.4 | 24.1 | 0.00 | 0.00 | 0.00 | 73 | 1013.5 |
| 20260506042024 | 10 | 46 | 8.0 | 24.1 | 0.00 | 0.00 | 0.00 | 73 | 1013.3 |
| 20260506041502 | 10 | 69 | 11.3 | 24.1 | 0.00 | 0.00 | 0.00 | 74 | 1013.2 |
| 20260506041002 | 10 | 53 | 11.3 | 22.5 | 0.00 | 0.00 | 0.00 | 75 | 1013.5 |
| 20260506040524 | 10 | 39 | 4.8 | 27.4 | 0.00 | 0.00 | 0.00 | 75 | 1013.5 |
| 20260506040024 | 10 | 37 | 6.4 | 29.0 | 0.00 | 0.00 | 0.00 | 75 | 1013.6 |
| 20260506035503 | 9 | 44 | 11.3 | 29.0 | 0.00 | 0.00 | 0.00 | 76 | 1013.2 |
| 20260506035002 | 9 | 35 | 9.7 | 22.5 | 0.00 | 0.00 | 0.00 | 78 | 1013.5 |
| 20260506034502 | 9 | 88 | 1.6 | 17.7 | 0.00 | 0.00 | 0.00 | 78 | 1013.3 |
| 20260506034003 | 9 | 34 | 6.4 | 20.9 | 0.00 | 0.00 | 0.00 | 79 | 1013.2 |
| 20260506033503 | 9 | 51 | 9.7 | 20.9 | 0.00 | 0.00 | 0.00 | 79 | 1013.1 |
| 20260506033003 | 9 | 65 | 4.8 | 20.9 | 0.00 | 0.00 | 0.00 | 79 | 1012.8 |